| time (UTC) | temp F | wind direction | speed MPH | gust MPH | rain 1hr in | rain 24hr in | rain mn in | humidity % | barometer mb |
| 20260504081542 | 41 | 290 | 1.0 | 7.0 | 0.00 | 0.00 | 0.00 | 64 | 1012.1 |
| 20260504050110 | 41 | 0 | 0.0 | 4.0 | 0.00 | 0.00 | 0.00 | 65 | 1011.6 |
| 20260504044541 | 43 | 0 | 0.0 | 4.0 | 0.00 | 0.00 | 0.00 | 62 | 1011.5 |
| 20260504043041 | 43 | 0 | 1.0 | 3.0 | 0.00 | 0.00 | 0.00 | 57 | 1011.3 |
| 20260504041541 | 44 | 310 | 1.0 | 3.0 | 0.00 | 0.00 | 0.00 | 56 | 1011.4 |
| 20260504040042 | 44 | 326 | 1.0 | 3.0 | 0.00 | 0.00 | 0.00 | 55 | 1011.1 |
| 20260504034546 | 45 | 310 | 1.0 | 3.0 | 0.00 | 0.00 | 0.00 | 54 | 1011.1 |
| 20260504033045 | 45 | 308 | 0.0 | 3.0 | 0.00 | 0.00 | 0.00 | 53 | 1011.1 |
| 20260504031601 | 46 | 292 | 1.0 | 3.0 | 0.00 | 0.00 | 0.00 | 52 | 1011.2 |
| 20260504030043 | 46 | 328 | 1.0 | 3.0 | 0.00 | 0.00 | 0.00 | 52 | 1011.2 |
| 20260504024540 | 47 | 334 | 1.0 | 6.0 | 0.00 | 0.00 | 0.00 | 51 | 1011.2 |
| 20260504023036 | 47 | 340 | 0.0 | 4.0 | 0.00 | 0.00 | 0.00 | 50 | 1011.4 |
| 20260504021543 | 47 | 302 | 1.0 | 3.0 | 0.00 | 0.00 | 0.00 | 50 | 1011.4 |
| 20260504020042 | 48 | 0 | 0.0 | 3.0 | 0.00 | 0.00 | 0.00 | 49 | 1011.4 |
| 20260504014543 | 48 | 0 | 0.0 | 3.0 | 0.00 | 0.00 | 0.00 | 49 | 1011.4 |
| 20260504013041 | 48 | 0 | 0.0 | 0.0 | 0.00 | 0.00 | 0.00 | 49 | 1011.2 |
| 20260504011537 | 48 | 309 | 0.0 | 3.0 | 0.00 | 0.00 | 0.00 | 48 | 1011.2 |
| 20260504010042 | 48 | 0 | 0.0 | 3.0 | 0.00 | 0.00 | 0.00 | 47 | 1011.1 |
| 20260504004543 | 49 | 288 | 0.0 | 2.0 | 0.00 | 0.00 | 0.00 | 47 | 1010.9 |
| 20260504003046 | 49 | 0 | 0.0 | 3.0 | 0.00 | 0.00 | 0.00 | 47 | 1010.8 |
| 20260504001556 | 50 | 288 | 1.0 | 6.0 | 0.00 | 0.00 | 0.00 | 46 | 1010.6 |
| 20260504000040 | 50 | 270 | 2.0 | 8.0 | 0.00 | 0.00 | 0.00 | 45 | 1010.3 |
| 20260503234536 | 51 | 319 | 2.0 | 6.0 | 0.00 | 0.00 | 0.00 | 44 | 1010.1 |
| 20260503233043 | 52 | 252 | 1.0 | 10.0 | 0.00 | 0.00 | 0.00 | 43 | 1010.1 |
| 20260503231548 | 52 | 325 | 1.0 | 8.0 | 0.00 | 0.00 | 0.00 | 40 | 1010.1 |
| 20260503230041 | 53 | 250 | 3.0 | 10.0 | 0.00 | 0.00 | 0.00 | 39 | 1009.9 |
| 20260503224538 | 53 | 70 | 2.0 | 10.0 | 0.00 | 0.00 | 0.00 | 37 | 1009.7 |
| 20260503223039 | 54 | 275 | 3.0 | 9.0 | 0.00 | 0.00 | 0.00 | 37 | 1009.6 |
| 20260503221536 | 54 | 309 | 2.0 | 8.0 | 0.00 | 0.00 | 0.00 | 34 | 1009.6 |
| 20260503220043 | 54 | 169 | 5.0 | 15.0 | 0.00 | 0.00 | 0.00 | 34 | 1009.4 |
| 20260503214548 | 54 | 0 | 2.0 | 8.0 | 0.00 | 0.00 | 0.00 | 35 | 1009.5 |
| 20260503213103 | 55 | 296 | 3.0 | 10.0 | 0.00 | 0.00 | 0.00 | 33 | 1009.4 |
| 20260503211556 | 54 | 190 | 5.0 | 11.0 | 0.00 | 0.00 | 0.00 | 33 | 1009.1 |
| 20260503210036 | 55 | 248 | 3.0 | 14.0 | 0.00 | 0.00 | 0.00 | 32 | 1009.3 |
| 20260503204558 | 56 | 226 | 6.0 | 17.0 | 0.00 | 0.00 | 0.00 | 30 | 1009.3 |
| 20260503203041 | 55 | 350 | 4.0 | 12.0 | 0.00 | 0.00 | 0.00 | 33 | 1009.2 |
| 20260503201541 | 55 | 162 | 5.0 | 13.0 | 0.00 | 0.00 | 0.00 | 34 | 1009.6 |
| 20260503200040 | 55 | 43 | 3.0 | 14.0 | 0.00 | 0.00 | 0.00 | 31 | 1009.6 |
| 20260503194543 | 55 | 247 | 4.0 | 14.0 | 0.00 | 0.00 | 0.00 | 32 | 1009.6 |
| 20260503193045 | 55 | 182 | 5.0 | 23.0 | 0.00 | 0.00 | 0.00 | 33 | 1009.9 |
| 20260503191556 | 55 | 192 | 4.0 | 12.0 | 0.00 | 0.00 | 0.00 | 34 | 1009.9 |
| 20260503190043 | 54 | 194 | 3.0 | 13.0 | 0.00 | 0.00 | 0.00 | 33 | 1010.0 |
| 20260503184541 | 53 | 44 | 6.0 | 14.0 | 0.00 | 0.00 | 0.00 | 37 | 1010.1 |
| 20260503183046 | 53 | 102 | 5.0 | 16.0 | 0.00 | 0.00 | 0.00 | 36 | 1010.2 |
| 20260503181541 | 52 | 355 | 5.0 | 12.0 | 0.00 | 0.00 | 0.00 | 35 | 1010.2 |
| 20260503180041 | 49 | 77 | 3.0 | 12.0 | 0.00 | 0.00 | 0.00 | 39 | 1010.5 |
| 20260503174550 | 51 | 188 | 4.0 | 18.0 | 0.00 | 0.00 | 0.00 | 38 | 1010.5 |
| 20260503173036 | 51 | 156 | 6.0 | 16.0 | 0.00 | 0.00 | 0.00 | 39 | 1010.6 |
| 20260503171541 | 51 | 177 | 2.0 | 15.0 | 0.00 | 0.00 | 0.00 | 40 | 1010.7 |